Oxford, NC

6:10 AM EST on December 16, 2019 (GMT -0500)
Henderson-Oxford

Weather History for KHNZ - October, 2019

Change the Weather History Date:

Monday, October 14, 2019

  Actual Average (KTDF) Record (KTDF)
Temperature  
Mean Temperature 61 °F -  
Max Temperature 74 °F 72 °F 86 °F (2000)
Min Temperature 48 °F 45 °F 25 °F (1988)
Degree Days  
Heating Degree Days 4    
Growing Degree Days 11 (Base 50)    
Moisture  
Dew Point 48 °F    
Average Humidity 69    
Maximum Humidity 99    
Minimum Humidity 23    
Precipitation  
Precipitation 0.22 in - - ()
Sea Level Pressure  
Sea Level Pressure 30.04 in    
Wind  
Wind Speed 0 mph (NW)    
Max Wind Speed 7 mph    
Max Gust Speed -    
Visibility 9 miles    
Events      
Averages and records for this station are not official NWS values.
T = Trace of Precipitation, MM = Missing Value Source: NWS Daily Summary

Daily Weather History Graph

Daily Weather History Graph

Search for Another Location

Airport or City:

Astronomy

Oct. 14, 2019 Rise Set
Actual Time 7:20 AM EDT 6:39 PM EDT
Civil Twilight 6:54 AM EDT 7:05 PM EDT
Nautical Twilight 6:24 AM EDT 7:35 PM EDT
Astronomical Twilight 5:54 AM EDT 8:05 PM EDT
Moon 7:29 PM EDT (10/14) 7:50 AM EDT (10/14)
Length of Visible Light 12h 11m
Length of Day
11h 19m
Waxing Gibbous, 99% of the Moon is Illuminated
Oct 14
Waxing Gibbous
Oct 21
Last Quarter
Oct 27
New
Nov 4
First Quarter
Nov 12
Full

Hourly Weather History & Observations

Time (EDT) Temp. Dew Point Humidity Pressure Visibility Wind Dir Wind Speed Gust Speed Precip Events Conditions
12:35 AM 63.5 °F 62.8 °F 97% 30.00 in 7.0 mi Calm Calm - 0.04 in   Overcast
12:55 AM 63.3 °F 62.6 °F 97% 29.99 in 7.0 mi Calm Calm - 0.06 in   Overcast
1:15 AM 63.5 °F 62.8 °F 97% 29.99 in 4.0 mi Calm Calm - 0.01 in   Overcast
1:35 AM 63.5 °F 62.8 °F 97% 29.99 in 5.0 mi Calm Calm - 0.04 in   Overcast
1:55 AM 62.8 °F 62.2 °F 98% 29.99 in 4.0 mi Calm Calm - 0.06 in   Overcast
2:35 AM 59.9 °F 59.4 °F 98% 30.00 in 4.0 mi Calm Calm - 0.03 in   Overcast
2:55 AM 59.9 °F 59.2 °F 97% 29.99 in 3.0 mi Calm Calm - 0.05 in   Overcast
3:15 AM 59.7 °F 59.2 °F 98% 29.99 in 4.0 mi Calm Calm - 0.01 in   Overcast
3:35 AM 59.0 °F 58.5 °F 98% 29.98 in 4.0 mi Calm Calm - 0.02 in   Overcast
3:55 AM 58.3 °F 57.9 °F 99% 29.98 in 4.0 mi Calm Calm - 0.03 in   Overcast
4:15 AM 58.1 °F 57.6 °F 98% 29.99 in 5.0 mi Calm Calm - N/A   Overcast
4:35 AM 57.9 °F 57.2 °F 97% 29.99 in 7.0 mi West 3.5 mph - 0.01 in   Overcast
4:55 AM 57.7 °F 56.5 °F 96% 29.99 in 10.0 mi Calm Calm - 0.01 in   Overcast
5:15 AM 57.6 °F 56.3 °F 96% 30.00 in 10.0 mi Calm Calm - N/A   Overcast
5:35 AM 57.2 °F 55.6 °F 94% 30.00 in 10.0 mi Calm Calm - 0.01 in   Overcast
5:55 AM 56.5 °F 54.5 °F 93% 30.02 in 10.0 mi Calm Calm - 0.01 in   Overcast
6:15 AM 55.4 °F 53.6 °F 94% 30.02 in 10.0 mi Calm Calm - N/A   Mostly Cloudy
6:35 AM 55.0 °F 53.1 °F 93% 30.03 in 10.0 mi Calm Calm - N/A   Mostly Cloudy
6:55 AM 55.4 °F 53.6 °F 94% 30.04 in 10.0 mi Calm Calm - N/A   Overcast
7:15 AM 55.4 °F 53.6 °F 94% 30.04 in 10.0 mi Calm Calm - N/A   Overcast
7:35 AM 54.5 °F 52.7 °F 94% 30.04 in 10.0 mi Calm Calm - N/A   Mostly Cloudy
7:55 AM 54.3 °F 53.1 °F 95% 30.05 in 7.0 mi Calm Calm - N/A   Mostly Cloudy
8:15 AM 54.9 °F 53.4 °F 95% 30.05 in 10.0 mi Calm Calm - N/A   Mostly Cloudy
8:35 AM 55.4 °F 53.6 °F 94% 30.07 in 10.0 mi Calm Calm - N/A   Scattered Clouds
8:55 AM 56.1 °F 53.4 °F 91% 30.07 in 10.0 mi Calm Calm - N/A   Scattered Clouds
9:15 AM 57.0 °F 54.1 °F 90% 30.08 in 10.0 mi Calm Calm - N/A   Mostly Cloudy
9:35 AM 57.9 °F 53.6 °F 86% 30.08 in 10.0 mi Calm Calm - N/A   Scattered Clouds
9:55 AM 59.4 °F 54.1 °F 83% 30.08 in 10.0 mi Calm Calm - N/A   Clear
10:15 AM 60.3 °F 52.3 °F 75% 30.08 in 10.0 mi Calm Calm - N/A   Clear
10:35 AM 61.9 °F 51.8 °F 69% 30.09 in 10.0 mi Calm Calm - N/A   Clear
10:55 AM 62.6 °F 50.9 °F 66% 30.09 in 10.0 mi Calm Calm - N/A   Clear
11:15 AM 64.2 °F 49.8 °F 59% 30.09 in 10.0 mi NNW 3.5 mph - N/A   Clear
11:35 AM 65.5 °F 47.8 °F 53% 30.09 in 10.0 mi WNW 5.8 mph - N/A   Clear
11:55 AM 66.2 °F 45.3 °F 47% 30.08 in 10.0 mi NNW 6.9 mph - N/A   Clear
12:35 PM 67.6 °F 44.4 °F 43% 30.07 in 10.0 mi NNW 4.6 mph - N/A   Clear
12:55 PM 69.1 °F 44.2 °F 41% 30.07 in 10.0 mi NNW 4.6 mph - N/A   Clear
1:15 PM 70.2 °F 44.1 °F 39% 30.07 in 10.0 mi Calm Calm - N/A   Clear
1:35 PM 70.0 °F 42.8 °F 37% 30.06 in 10.0 mi Calm Calm - N/A   Clear
1:55 PM 71.1 °F 41.9 °F 35% 30.05 in 10.0 mi Calm Calm - N/A   Clear
2:15 PM 71.8 °F 43.5 °F 36% 30.04 in 10.0 mi Calm Calm - N/A   Clear
2:35 PM 71.2 °F 43.5 °F 37% 30.04 in 10.0 mi Calm Calm - N/A   Clear
2:55 PM 72.3 °F 42.6 °F 34% 30.03 in 10.0 mi Calm Calm - N/A   Clear
3:15 PM 72.9 °F 40.8 °F 31% 30.03 in 10.0 mi Calm Calm - N/A   Clear
3:35 PM 72.9 °F 38.5 °F 29% 30.03 in 10.0 mi Calm Calm - N/A   Clear
3:55 PM 74.1 °F 40.1 °F 29% 30.02 in 10.0 mi Calm Calm - N/A   Clear
4:15 PM 73.8 °F 36.3 °F 26% 30.02 in 10.0 mi Calm Calm - N/A   Clear
4:35 PM 73.4 °F 33.4 °F 23% 30.02 in 10.0 mi Calm Calm - N/A   Clear
4:55 PM 73.4 °F 34.0 °F 24% 30.03 in 10.0 mi Calm Calm - N/A   Clear
5:15 PM 72.9 °F 32.9 °F 23% 30.03 in 10.0 mi Calm Calm - N/A   Clear
5:35 PM 72.1 °F 32.7 °F 23% 30.03 in 10.0 mi Calm Calm - N/A   Clear
5:55 PM 71.1 °F 33.6 °F 25% 30.04 in 10.0 mi Calm Calm - N/A   Clear
6:15 PM 69.1 °F 35.1 °F 29% 30.03 in 10.0 mi Calm Calm - N/A   Clear
6:35 PM 64.6 °F 38.7 °F 38% 30.04 in 10.0 mi Calm Calm - N/A   Clear
6:55 PM 61.9 °F 40.6 °F 46% 30.04 in 10.0 mi Calm Calm - N/A   Clear
7:15 PM 59.0 °F 44.4 °F 58% 30.04 in 10.0 mi Calm Calm - N/A   Clear
7:35 PM 58.1 °F 43.3 °F 58% 30.05 in 10.0 mi Calm Calm - N/A   Clear
7:55 PM 53.8 °F 46.2 °F 76% 30.06 in 10.0 mi Calm Calm - N/A   Clear
8:15 PM 52.5 °F 46.6 °F 80% 30.06 in 10.0 mi Calm Calm - N/A   Clear
8:35 PM 51.4 °F 46.6 °F 83% 30.06 in 10.0 mi Calm Calm - N/A   Clear
8:55 PM 50.9 °F 46.4 °F 85% 30.07 in 10.0 mi Calm Calm - N/A   Clear
9:15 PM 53.8 °F 44.1 °F 70% 30.07 in 10.0 mi Calm Calm - N/A   Clear
9:35 PM 52.9 °F 43.9 °F 71% 30.07 in 10.0 mi Calm Calm - N/A   Clear
9:55 PM 52.7 °F 43.0 °F 70% 30.08 in 10.0 mi Calm Calm - N/A   Clear
10:15 PM 52.7 °F 43.7 °F 71% 30.08 in 10.0 mi Calm Calm - N/A   Clear
10:35 PM 52.7 °F 43.5 °F 71% 30.09 in 10.0 mi Calm Calm - N/A   Clear
10:55 PM 50.5 °F 45.5 °F 83% 30.09 in 10.0 mi Calm Calm - N/A   Clear
11:15 PM 53.2 °F 41.0 °F 63% 30.09 in 10.0 mi Calm Calm - N/A   Clear
11:35 PM 48.9 °F 44.1 °F 83% 30.09 in 10.0 mi Calm Calm - N/A   Clear
11:55 PM 53.8 °F 40.5 °F 61% 30.09 in 10.0 mi Calm Calm - N/A   Clear